Theta_e
330 330 330 329 328 328 328 330 331 330 329 329 329 325 323 324 326 326 324 324 324 323 321 320 318 320 318 318 317 320 320 321 321 321 320 319 317 317 317 315 315 317 318 318 319 318 317 316 316 318 318 317 317 318 316 316 317 318 317 315 314 316 313 309 305 305 308 316 313 308 310 309 306 307 308 310 309 307 307 309 310 308 306 307 302
328 328 329 329 329 328 328 330 330 328 329 328 328 324 322 324 326 324 324 324 323 322 319 322 320 320 317 316 318 317 319 319 321 321 319 319 319 321 319 317 315 316 319 317 317 319 319 316 317 318 320 317 318 313 314 316 314 315 313 315 312 315 314 312 308 306 305 311 308 308 310 312 308 308 309 309 309 309 308 308 310 310 308 309 305
328 329 329 329 329 329 328 329 330 332 329 329 327 322 322 324 325 325 324 323 324 323 321 322 320 319 319 319 316 317 317 319 322 321 320 319 319 321 320 318 319 317 316 316 314 317 317 316 316 317 320 318 317 315 316 314 315 313 313 314 313 313 313 313 312 308 307 308 312 307 309 312 309 307 307 309 310 310 308 309 310 311 312 310 308
330 331 331 331 329 328 327 328 329 329 330 328 329 324 323 324 325 325 325 322 321 326 321 321 321 321 320 317 317 317 318 321 320 318 320 320 320 319 317 318 319 319 317 315 315 316 316 316 316 317 318 316 316 315 316 317 315 314 314 315 314 314 314 317 312 313 309 307 309 305 309 311 310 308 310 309 309 307 308 308 311 310 311 312 310
329 328 329 329 329 328 327 328 326 328 328 328 329 326 325 324 325 323 328 325 323 326 320 324 321 320 321 317 316 317 318 318 318 319 321 321 321 321 318 318 319 319 319 316 319 316 316 315 315 316 317 316 315 316 315 315 316 315 315 312 312 315 316 314 314 312 312 310 309 310 313 311 309 311 309 307 307 308 309 309 309 309 310 311 311
329 329 329 328 328 328 327 326 325 327 328 330 331 329 327 325 324 325 324 324 327 326 321 322 319 318 318 317 316 317 317 318 317 317 317 320 321 320 320 320 320 319 319 317 317 318 318 317 317 316 317 316 316 317 316 315 317 315 315 313 312 315 316 316 313 311 311 311 311 310 309 311 308 309 312 307 308 308 307 309 309 309 309 308 309
327 325 328 328 327 327 327 327 327 327 327 327 330 331 330 328 324 322 323 324 327 326 326 323 324 323 317 319 318 318 317 317 319 320 319 321 320 320 321 320 321 321 320 319 318 319 318 319 317 319 319 318 318 317 316 316 317 315 315 317 314 313 314 314 312 312 311 308 308 312 310 311 311 309 308 309 308 307 306 305 305 308 309 307 307
327 327 327 328 326 327 328 328 327 327 327 327 328 328 329 330 328 326 325 323 323 322 324 324 324 323 322 321 321 319 320 319 319 318 318 322 321 321 322 320 319 321 320 320 319 319 320 320 319 319 319 320 318 318 317 317 316 315 316 316 315 315 314 315 312 311 311 311 309 308 308 309 307 308 310 309 306 306 307 306 303 303 305 306 305
325 325 325 326 327 327 327 327 328 328 327 329 328 329 329 330 329 328 328 326 328 324 322 322 323 322 322 323 323 322 322 321 323 320 320 318 321 319 321 319 320 319 320 319 320 319 318 320 319 318 320 319 311 310 309 312 318 316 316 316 315 315 313 313 313 313 311 310 309 310 308 307 308 308 307 305 304 303 304 306 303 304 303 302 304
323 323 324 325 325 325 327 326 326 327 327 326 326 327 327 329 329 328 327 326 324 325 326 324 321 323 322 322 322 324 323 323 319 311 313 319 319 321 321 320 319 319 319 318 319 320 322 320 319 321 313 310 306 302 300 300 305 309 308 311 314 314 313 312 312 311 311 309 308 306 305 305 307 306 306 306 306 306 304 303 302 302 301 301 302
320 320 321 322 324 325 327 326 327 326 326 328 328 327 326 327 327 328 328 326 324 325 326 324 323 323 322 322 322 323 321 316 302 305 306 308 318 321 320 320 320 320 320 319 320 321 318 320 320 316 314 313 308 300 300 298 296 295 295 297 303 314 313 313 312 311 309 309 307 307 305 305 306 307 306 306 306 304 303 302 302 301 299 297 296
318 318 320 323 323 323 324 325 325 326 326 325 326 326 326 325 325 326 327 325 323 324 326 325 325 322 322 320 319 316 317 308 303 301 304 308 311 324 324 322 322 321 321 321 321 321 319 318 319 320 319 318 316 311 304 299 296 294 294 293 292 293 298 306 307 308 307 307 307 307 305 305 305 305 304 304 302 302 302 301 300 299 299 297 296
317 318 318 318 318 322 320 323 323 325 325 325 325 327 324 323 324 324 324 324 323 323 325 326 322 322 322 321 319 318 319 308 304 303 300 301 303 311 323 322 322 322 321 322 321 318 318 318 318 319 321 317 318 318 314 305 295 294 293 294 294 292 292 293 297 306 307 307 307 307 305 305 305 304 304 303 304 301 301 300 300 299 298 297 296
313 313 313 314 314 315 318 318 321 322 324 324 327 327 327 324 325 324 323 325 323 323 324 323 322 322 321 319 318 320 319 307 300 302 301 299 298 302 321 323 323 322 323 323 319 317 315 313 316 318 319 319 319 319 318 311 306 303 303 304 303 297 292 292 293 295 301 309 308 306 308 308 305 305 306 305 303 300 299 298 298 296 296 296 297
311 311 311 312 313 313 313 314 314 315 320 324 324 323 325 326 325 324 322 321 322 323 322 322 323 322 321 319 320 320 320 305 299 299 298 299 298 298 315 320 322 321 321 319 319 318 316 316 317 318 319 318 319 316 317 311 307 306 306 307 305 304 306 305 305 308 309 310 308 308 306 305 304 303 301 301 300 299 299 297 296 296 297 297 297
305 306 306 307 309 310 311 312 314 313 314 316 319 321 323 323 323 325 324 323 323 324 323 323 322 321 321 320 320 318 319 303 298 297 296 297 298 309 315 316 319 319 316 317 319 320 319 319 319 320 319 317 311 303 309 311 308 307 306 307 307 303 296 293 292 294 299 301 300 301 298 296 296 297 297 297 298 298 297 296 296 295 294 293 292
304 304 304 305 306 307 308 309 310 312 313 313 313 316 317 321 323 323 323 323 322 322 322 321 322 322 321 320 319 319 317 308 301 300 297 296 298 312 314 314 316 316 317 317 319 318 319 321 320 319 319 317 308 300 300 304 310 309 308 308 307 304 300 298 293 291 291 291 291 291 290 290 290 290 290 292 295 295 295 293 292 294 292 290 291
304 304 304 304 304 305 305 306 307 309 310 311 312 314 316 316 317 321 321 320 320 320 321 321 322 322 321 320 320 319 319 312 302 301 298 297 300 312 314 313 315 316 315 317 315 314 307 307 314 318 318 313 296 298 298 307 311 310 309 308 307 305 302 302 302 298 291 291 290 290 290 291 291 291 292 290 290 293 293 292 294 294 293 293 291
304 305 304 304 304 304 304 305 305 307 309 310 312 312 313 314 315 316 317 318 318 320 318 317 318 320 322 321 317 319 320 313 299 298 297 296 300 312 314 313 314 315 315 314 314 309 306 302 304 314 311 302 295 296 297 306 312 312 309 308 307 305 303 302 302 300 300 300 298 298 297 293 294 294 296 291 291 293 295 296 296 294 292 292 293
301 302 303 304 304 303 303 304 305 307 307 308 310 312 312 312 313 313 314 314 314 315 316 316 316 316 319 320 319 318 319 318 303 295 296 295 297 311 315 314 313 312 313 314 312 309 306 303 298 294 293 292 291 292 293 296 305 310 310 309 306 306 305 304 306 303 303 303 302 300 300 299 296 297 297 296 294 295 295 296 296 297 295 293 293
301 301 301 301 301 301 302 303 304 306 306 307 308 308 309 310 311 312 312 312 313 314 315 315 314 316 318 320 319 319 319 318 313 293 294 294 294 300 314 315 314 312 313 311 311 308 304 302 299 293 291 291 291 292 292 293 297 305 304 300 299 301 303 302 299 298 301 299 299 300 300 299 299 299 299 299 297 295 294 295 297 298 296 293 291
300 300 300 301 301 301 302 303 304 305 305 305 304 304 306 308 309 310 310 310 311 312 313 313 312 312 316 318 320 318 317 312 318 298 293 294 294 294 309 316 313 313 310 309 310 308 304 300 297 292 291 291 291 291 292 292 293 296 292 289 288 292 300 303 302 300 300 300 298 297 298 297 297 297 297 297 298 298 297 297 297 295 295 294 292
300 300 300 300 300 301 301 302 303 304 304 304 303 303 304 304 306 308 308 309 309 309 310 312 312 311 313 318 318 318 317 313 306 304 294 294 294 293 297 305 301 312 310 310 309 306 301 298 294 292 291 291 291 291 291 291 292 291 289 289 289 289 294 299 298 300 299 298 298 297 295 295 296 296 295 295 297 296 295 295 295 295 294 295 295
300 300 300 300 300 300 300 301 301 302 302 303 303 303 303 304 304 305 305 306 307 308 309 310 310 310 310 314 315 312 314 314 305 301 300 293 293 293 294 293 292 306 312 311 306 301 298 296 293 290 290 290 290 290 290 290 290 288 288 289 290 292 298 299 297 299 295 296 295 295 296 296 295 294 294 296 295 295 296 295 294 294 294 294 294
300 299 299 299 299 299 300 300 301 301 301 301 300 300 301 302 301 302 303 304 305 305 306 307 308 308 309 311 312 311 313 314 308 297 294 291 292 291 292 292 292 295 308 307 302 299 293 290 289 289 289 289 289 289 289 288 288 288 288 289 293 298 299 298 299 298 296 294 295 296 295 294 294 295 296 295 295 294 294 296 296 296 296 295 295
298 298 298 298 298 298 298 299 299 300 301 300 300 300 300 300 300 301 301 301 301 303 304 305 306 307 307 309 311 310 313 310 304 298 296 295 292 289 290 291 292 295 297 295 291 289 289 289 289 289 290 292 295 294 292 291 288 288 287 291 297 297 298 297 297 296 295 295 293 293 293 294 294 295 294 294 294 293 293 292 291 291 292 292 291
298 298 297 297 297 297 297 297 298 298 298 299 299 299 299 299 300 299 300 299 299 299 301 303 304 305 305 309 311 311 310 309 306 302 302 300 297 295 294 293 291 291 292 292 291 291 291 292 292 291 291 291 291 291 290 289 291 293 293 294 296 298 295 293 293 293 292 293 292 292 293 293 295 292 293 292 292 292 292 291 291 289 291 290 289
296 296 297 297 297 297 297 292 294 297 298 298 298 299 299 300 298 298 299 300 299 299 300 300 302 304 305 308 310 309 308 310 308 305 304 303 301 301 300 299 298 296 294 294 294 294 293 291 292 294 294 294 293 293 293 294 293 292 295 295 296 291 291 291 293 293 293 296 293 292 290 293 292 292 292 292 292 292 292 291 290 289 290 290 288
296 296 296 296 296 296 296 296 296 296 297 297 298 298 298 298 298 299 301 305 301 301 301 301 305 309 309 307 307 306 305 307 308 301 305 299 300 302 302 301 299 297 294 293 295 294 295 295 294 295 294 291 290 292 292 293 293 295 299 298 296 295 294 293 292 294 294 291 290 290 287 291 291 292 291 291 291 291 290 290 290 290 290 290 289
295 295 295 295 295 295 295 295 295 295 295 295 296 297 293 293 295 297 298 296 293 291 294 299 305 307 308 307 308 306 305 307 299 298 297 296 296 296 296 295 294 294 292 291 294 293 292 292 291 291 291 291 290 290 291 291 291 291 290 289 291 293 292 292 293 291 289 289 289 288 288 288 287 289 290 289 289 289 289 289 289 290 289 288 287
294 294 294 294 294 294 294 294 294 295 295 295 295 295 296 297 293 293 293 292 291 289 290 292 292 295 305 303 294 290 291 290 291 294 292 293 292 292 291 291 291 291 291 292 292 292 292 291 291 291 290 291 290 290 291 290 290 290 290 290 290 289 288 290 290 287 287 287 288 288 288 288 286 287 287 287 287 288 288 289 291 291 289 288 287
293 293 294 293 293 293 293 293 293 293 294 294 294 294 294 293 295 294 293 290 291 290 289 291 294 296 297 298 299 297 291 291 291 291 293 294 292 291 291 291 291 291 291 292 291 291 292 291 291 291 291 290 290 290 291 291 290 290 289 289 289 288 288 288 289 289 288 288 287 287 287 287 288 287 286 286 287 287 288 287 288 287 287 287 287
293 293 293 293 293 292 292 292 293 293 292 292 293 293 293 293 292 293 295 290 287 289 291 290 291 293 295 296 296 295 294 292 292 292 291 290 290 290 290 291 291 291 292 292 292 292 291 291 291 292 292 290 291 291 291 293 291 290 290 289 288 288 289 289 288 290 287 287 287 286 286 288 286 286 287 287 286 285 286 286 287 287 287 286 286
294 294 293 293 292 292 292 292 292 292 292 292 292 292 292 292 292 293 292 293 295 293 290 290 290 291 292 294 294 292 291 292 292 292 291 291 290 290 290 290 291 291 292 292 292 291 292 292 293 294 294 293 292 290 290 291 290 291 290 291 291 292 292 291 289 287 286 287 287 287 287 287 287 287 286 286 287 287 287 287 287 287 286 286 285
294 291 289 289 293 292 292 292 292 292 292 291 291 291 291 292 292 292 291 291 292 292 294 297 292 290 294 292 292 291 291 291 291 291 291 290 290 290 290 291 291 291 294 296 296 295 293 293 293 294 295 292 291 291 291 294 291 290 289 289 292 289 287 287 286 288 286 287 287 287 287 286 286 287 287 286 287 287 287 287 287 287 286 286 286
294 293 294 294 294 294 293 293 293 292 291 292 292 291 291 290 290 291 291 292 291 292 293 297 295 290 291 291 290 291 291 291 290 290 289 289 290 291 292 291 291 291 291 294 295 296 295 295 294 295 295 294 293 291 293 291 291 290 292 290 288 287 286 286 286 286 287 286 287 287 287 286 288 286 286 287 287 287 287 287 286 286 286 286 285
294 293 294 294 294 293 293 293 293 293 290 290 291 291 291 290 290 290 291 291 291 291 292 294 296 295 292 292 290 289 289 290 290 290 289 289 290 291 291 290 290 291 290 293 294 295 295 295 295 296 295 294 293 293 292 292 293 292 290 289 289 287 287 285 286 286 287 287 287 286 286 286 286 286 286 286 286 286 286 286 286 286 286 285 285
294 294 294 293 293 293 293 292 292 289 290 291 291 291 290 290 290 290 290 289 289 289 290 292 293 295 293 291 294 292 289 288 289 289 289 288 290 291 291 292 293 292 291 293 294 295 294 295 295 296 295 295 294 294 292 291 290 289 288 287 287 286 288 285 286 286 286 286 286 286 286 286 286 286 286 285 285 285 284 285 285 286 286 286 286
294 291 289 288 289 292 292 291 290 290 290 290 291 290 289 289 289 289 289 290 289 289 289 292 294 295 295 293 292 291 291 290 290 289 289 289 288 290 291 291 291 291 292 292 294 294 295 295 294 295 295 295 294 293 292 289 290 288 288 287 287 285 284 284 285 284 286 286 286 286 286 286 285 285 285 285 284 285 285 286 286 286 286 286 286
294 293 292 289 291 291 291 291 290 290 289 290 290 290 289 289 289 289 290 289 289 289 289 290 292 293 295 293 291 292 292 290 289 289 288 287 287 289 290 290 290 290 291 292 294 295 295 294 294 294 295 295 293 292 290 290 289 287 287 288 286 285 286 286 286 286 285 286 286 286 285 285 285 285 285 285 286 287 287 287 286 286 286 286 287
294 293 290 291 291 292 292 292 291 292 291 290 290 290 290 289 289 289 289 289 289 290 291 294 296 295 291 289 289 290 291 291 290 290 290 290 290 290 291 291 291 291 292 292 293 293 293 293 292 292 291 291 290 290 290 290 288 287 286 286 285 286 286 287 287 285 286 285 285 285 285 285 285 285 285 286 288 287 287 287 286 287 287 287 287
293 293 293 293 293 293 293 292 293 293 292 292 291 290 289 289 290 290 289 289 289 289 290 290 289 288 288 289 289 290 292 292 291 290 292 292 292 292 292 292 293 293 291 291 292 290 291 291 291 291 291 290 290 290 289 287 287 286 286 286 285 285 285 286 285 285 285 285 284 284 285 285 285 286 286 288 286 285 286 287 287 287 287 287 287
293 293 293 292 293 293 293 293 293 294 293 292 292 291 290 290 291 291 293 291 288 289 289 288 289 289 289 288 289 289 292 291 289 291 291 292 292 291 291 291 291 292 293 293 292 291 291 291 291 291 290 290 290 289 288 286 287 287 286 286 285 285 285 284 285 285 284 284 284 284 284 285 285 285 285 285 285 286 287 287 287 286 287 287 286
293 292 292 292 293 294 294 294 293 293 293 290 290 290 292 294 294 292 290 291 290 290 288 288 287 289 289 290 290 290 291 291 290 291 291 290 290 290 290 291 292 291 291 290 291 291 291 290 289 289 289 289 289 288 288 288 288 287 285 286 285 285 284 284 284 283 283 283 284 284 284 285 285 285 286 287 287 286 286 287 287 287 286 286 286
293 293 292 292 293 293 293 294 293 294 292 292 292 293 292 294 294 292 292 291 289 290 290 288 288 289 290 291 292 291 291 289 289 288 288 288 289 289 291 290 291 291 291 290 290 290 290 290 289 289 288 288 288 288 288 288 288 287 287 286 285 285 284 283 282 283 284 283 283 284 284 284 284 284 285 286 287 287 286 287 287 287 286 286 286
293 292 292 292 292 292 292 293 291 293 293 292 292 293 294 294 293 292 292 291 291 290 291 290 290 290 290 291 291 290 289 289 288 288 288 288 289 289 289 290 290 290 290 290 290 290 290 290 289 289 288 288 288 287 288 287 287 288 287 286 284 283 283 283 282 283 283 282 283 283 283 283 283 285 285 285 286 287 287 287 287 287 286 286 287
294 292 291 291 291 291 292 292 292 292 292 291 291 291 292 293 293 293 291 291 292 291 292 291 291 291 291 291 290 290 290 289 289 289 289 289 288 288 289 289 289 289 289 289 288 288 288 288 288 288 288 288 287 286 286 287 287 286 285 284 282 281 281 282 282 282 283 283 283 282 282 282 283 284 285 285 286 287 287 287 287 287 287 287 287
294 293 292 291 291 291 291 291 291 289 291 291 290 290 291 292 292 291 291 291 292 292 292 292 292 292 290 291 291 290 290 290 290 290 290 289 289 289 289 288 288 288 289 288 289 288 288 288 288 288 287 287 287 287 287 287 286 285 283 281 280 280 279 280 281 281 281 281 281 282 282 282 283 283 285 285 286 287 287 286 287 287 287 287 287
294 293 292 291 291 291 290 290 290 290 290 290 290 290 289 290 291 291 291 291 291 291 291 291 291 291 291 291 291 291 291 290 290 290 290 289 289 289 288 288 288 288 288 288 288 288 288 288 287 287 287 287 287 287 286 285 284 283 282 281 280 279 279 279 280 281 280 282 282 283 282 282 282 283 285 286 287 287 287 287 287 287 287 287 287
295 293 293 292 292 291 291 290 290 290 289 289 289 288 289 289 289 290 290 290 290 290 290 290 290 291 290 290 289 290 290 289 289 289 289 289 289 289 289 288 288 288 288 288 288 288 288 287 287 287 287 287 286 285 284 283 282 282 281 280 279 279 279 279 280 280 280 280 280 281 282 282 282 283 285 285 286 286 286 287 287 287 287 287 287
294 294 293 293 292 292 292 291 290 290 289 288 288 288 288 288 288 288 289 289 289 289 289 289 289 289 289 289 288 289 289 289 289 289 289 288 288 288 288 288 288 288 288 288 288 288 288 288 287 287 286 285 285 284 282 282 281 281 280 279 279 278 279 279 279 279 279 280 281 282 282 283 283 284 285 284 285 284 286 286 286 286 287 287 286
Wind_Speed
6 5 5 5 5 4 4 3 3 3 5 4 4 4 5 3 3 3 3 3 3 3 4 4 4 3 4 3 3 3 3 2 1 2 2 3 4 4 4 4 4 3 5 5 4 5 6 4 4 5 5 4 4 4 4 4 4 5 5 5 6 4 7 8 7 5 3 1 2 4 3 3 1 4 4 2 2 3 5 3 6 5 5 5 6
6 6 5 5 5 4 4 2 4 5 5 4 3 5 6 4 3 3 3 3 3 3 4 3 4 3 3 4 3 3 3 3 2 1 3 2 1 2 3 4 5 4 3 4 5 4 4 5 5 4 3 5 4 3 3 3 5 3 6 5 6 6 6 3 6 4 3 1 4 4 2 0 1 4 5 3 2 3 3 3 6 7 6 7 6
8 7 6 5 5 4 4 3 2 2 6 4 4 5 5 4 3 3 3 4 3 3 3 3 3 3 3 4 3 3 3 3 2 3 3 2 1 2 4 4 3 4 5 4 4 4 5 5 4 3 3 4 3 4 6 7 6 8 7 6 6 5 4 3 4 5 5 3 4 4 2 0 1 1 7 5 3 1 3 1 0 2 1 5 6
7 8 7 8 8 6 4 4 4 1 3 3 3 5 5 4 3 3 3 4 3 2 4 3 3 3 4 4 4 3 4 3 3 3 2 1 1 3 4 4 2 3 4 4 5 4 4 4 3 3 3 4 4 4 4 3 5 5 5 4 4 3 4 2 4 2 5 5 1 4 4 4 3 3 1 3 5 4 5 5 0 4 7 7 5
9 10 10 9 9 7 6 5 5 3 3 3 3 5 4 4 3 3 2 3 3 2 4 3 3 3 3 4 4 4 4 3 3 3 2 1 1 2 3 2 1 2 2 5 5 4 4 4 3 3 2 3 2 2 3 5 3 4 3 6 5 2 2 3 3 3 4 2 2 2 1 0 0 1 1 3 2 1 1 1 4 6 6 7 6
5 6 6 7 7 8 6 7 6 5 3 3 2 3 4 4 4 3 3 3 2 2 4 2 3 3 3 3 4 4 4 4 4 4 3 2 2 2 2 2 1 1 2 4 4 4 3 4 4 3 2 3 0 3 3 2 3 4 5 4 5 3 3 1 2 1 2 3 2 3 1 0 2 1 1 3 1 2 2 7 5 4 5 5 4
7 6 5 5 6 6 6 6 5 6 5 5 3 2 2 3 5 5 4 3 2 1 1 2 1 2 4 3 4 4 4 4 4 3 3 2 3 2 3 2 1 1 2 2 2 3 2 4 4 3 2 1 2 4 3 4 4 2 2 3 2 3 1 1 0 1 2 0 1 2 4 3 1 1 2 1 3 4 4 3 3 2 2 3 4
4 5 5 4 5 5 5 6 5 6 5 6 6 5 3 2 2 3 4 4 3 3 2 2 1 2 2 2 2 4 3 3 3 4 4 3 3 3 1 3 3 2 3 2 3 3 1 3 4 4 3 2 5 3 2 2 2 3 3 2 2 2 0 0 2 2 1 1 2 1 1 3 4 2 3 5 3 3 3 2 1 3 4 3 4
6 7 6 5 4 5 6 3 3 2 3 2 3 3 3 2 2 2 2 3 2 3 3 3 2 2 3 1 1 3 3 3 2 3 2 4 3 4 3 3 3 3 3 3 4 4 4 3 6 3 3 10 11 9 8 7 3 3 4 3 1 1 1 3 3 0 1 2 3 1 0 1 3 4 1 1 1 1 3 5 4 3 3 6 4
6 6 6 4 4 3 5 4 5 4 5 4 4 4 2 2 2 1 2 1 3 3 2 3 3 3 2 2 1 2 2 3 1 7 2 3 4 4 4 4 4 4 4 4 4 4 4 5 2 7 10 8 11 12 11 9 7 5 2 5 1 2 2 2 3 3 2 3 4 3 4 3 1 3 1 4 5 5 6 5 4 4 5 4 5
6 4 5 5 3 2 2 3 3 4 4 2 2 3 3 2 2 1 2 5 3 3 2 2 2 1 1 1 1 2 6 9 13 4 4 4 5 4 4 4 4 4 5 5 3 7 4 2 2 4 8 7 7 11 12 10 9 7 6 6 6 3 2 1 1 2 2 1 1 1 3 3 7 8 7 3 5 5 4 3 3 3 3 4 6
5 5 3 3 2 4 3 2 3 3 3 3 4 3 3 3 2 1 1 1 2 1 2 1 4 4 5 6 9 8 3 3 7 11 7 1 1 2 3 3 4 4 4 5 4 6 6 4 2 2 4 5 4 5 7 8 9 8 6 6 7 10 8 5 2 3 3 4 3 3 3 3 4 5 4 4 3 4 4 4 3 4 4 4 4
7 6 4 4 2 4 2 2 3 2 2 3 0 2 4 2 2 3 2 1 2 2 2 1 4 2 1 1 5 4 2 4 5 6 9 10 3 2 3 4 4 4 4 5 4 7 5 3 1 0 1 6 5 5 5 6 7 8 8 7 7 6 7 8 6 3 1 3 3 3 3 1 4 3 3 2 3 3 4 4 4 4 3 4 5
8 9 8 8 7 6 4 3 2 3 3 3 2 0 2 3 4 3 1 2 3 2 2 1 1 1 1 1 2 4 3 5 8 11 13 12 7 2 3 3 4 5 5 2 6 5 3 6 5 5 3 6 5 5 4 6 6 6 4 3 2 3 3 5 6 4 2 0 1 1 3 3 4 3 4 4 5 4 3 3 3 3 4 5 5
10 10 9 10 9 7 7 6 6 5 3 1 2 3 2 2 3 4 7 6 4 4 3 3 4 3 3 3 4 6 6 9 10 12 13 14 10 3 4 3 3 2 6 8 3 7 9 8 6 7 7 6 6 7 6 7 6 6 5 4 4 3 1 2 3 2 3 4 5 6 5 5 5 5 4 5 4 3 2 3 4 4 5 5 6
12 11 12 11 10 10 10 8 6 6 5 4 3 2 1 3 3 2 3 5 6 5 3 3 4 5 5 5 5 6 5 8 10 12 12 13 10 6 5 5 2 2 4 1 5 7 8 8 7 6 6 5 7 11 7 7 5 6 6 5 5 5 4 0 1 5 6 5 5 4 4 4 6 4 3 3 3 3 4 4 4 4 5 5 5
11 10 10 10 10 10 10 10 9 8 7 6 5 4 4 2 1 3 3 3 3 5 6 6 6 6 6 6 7 6 7 11 15 14 12 13 8 6 7 6 4 3 4 5 4 2 5 9 8 7 7 7 9 12 9 11 5 6 6 6 6 5 3 2 2 7 9 10 9 8 8 7 7 6 6 6 4 2 1 3 3 4 6 6 6
8 8 8 8 9 9 10 10 9 8 8 8 7 7 5 5 5 3 2 3 4 4 5 6 6 7 8 8 8 8 9 14 20 18 15 15 12 9 7 6 5 5 4 3 2 3 1 2 4 6 9 7 12 15 15 10 7 6 6 6 7 6 4 3 2 3 6 7 7 6 5 4 4 3 5 6 5 3 2 2 1 3 4 4 5
4 4 5 7 8 8 8 8 8 7 7 7 6 7 6 5 5 5 5 3 3 3 3 4 5 7 8 8 10 9 6 8 15 16 16 15 12 8 8 7 6 6 6 6 4 3 2 4 2 7 7 9 12 14 11 6 3 6 5 6 5 6 6 6 4 3 2 2 1 1 1 2 1 2 3 7 8 7 2 2 2 2 4 5 6
7 7 6 5 5 7 7 7 6 5 6 6 6 6 6 6 5 5 6 6 5 4 3 4 5 5 4 9 9 9 7 6 11 15 14 14 15 11 8 8 4 6 6 7 7 5 5 4 6 10 13 11 10 10 8 6 1 3 7 6 5 5 7 5 4 4 4 3 3 4 4 4 3 3 3 5 5 3 3 3 3 4 4 5 5
8 8 7 7 7 8 8 7 8 7 7 6 6 6 6 6 6 6 5 6 6 5 5 5 5 4 4 5 8 8 8 8 8 14 14 15 15 14 9 8 6 7 7 6 6 6 6 4 5 5 12 12 12 13 13 11 9 5 7 7 3 3 7 5 4 6 2 1 1 1 2 2 4 5 4 4 4 5 5 4 4 3 5 5 6
7 7 7 7 8 8 8 8 8 7 7 7 7 7 6 7 7 6 6 6 7 8 7 6 6 5 3 4 5 7 8 12 7 10 14 15 15 16 10 6 7 8 7 7 6 7 7 6 5 6 12 13 14 14 14 13 12 8 7 9 9 12 6 4 3 2 3 4 3 3 3 2 1 1 2 2 5 3 3 3 1 1 2 1 2
6 7 7 8 7 8 8 9 9 8 8 8 8 9 8 8 8 8 7 8 9 10 9 7 6 6 4 3 2 4 3 4 4 6 11 14 16 15 13 5 12 9 9 7 7 7 8 7 6 10 14 14 14 15 14 14 11 7 10 11 10 6 2 1 2 2 0 0 2 3 4 4 4 1 2 3 5 4 3 2 1 1 1 1 2
5 5 5 6 7 7 9 9 9 9 10 10 9 9 8 8 8 7 8 8 7 8 7 7 7 7 5 4 4 6 6 6 6 6 7 11 9 10 12 11 5 6 8 7 6 10 9 8 8 13 14 14 13 13 13 11 8 9 9 8 6 2 0 1 3 3 1 0 1 1 4 1 3 4 3 4 3 2 2 2 3 3 4 3 1
6 6 7 8 7 8 7 7 7 8 8 9 10 10 10 9 8 8 8 8 9 9 8 8 7 7 5 4 4 4 4 4 5 8 12 6 2 8 9 4 6 14 9 6 9 9 13 15 13 14 15 15 15 14 11 10 10 9 8 6 2 0 1 2 0 3 2 1 2 1 1 3 2 3 4 3 3 4 4 4 1 1 0 1 1
7 8 9 8 8 10 9 8 8 7 8 7 8 9 9 9 9 8 8 8 8 9 9 9 9 8 6 4 4 5 5 6 5 5 7 9 6 5 9 10 8 10 13 14 18 21 19 16 16 15 13 10 8 6 6 5 7 7 5 2 0 2 3 1 2 3 1 0 2 3 2 3 3 4 4 4 3 2 1 3 4 5 5 5 5
8 8 8 9 9 10 10 9 8 9 8 9 8 7 7 8 9 9 8 8 9 9 9 8 8 8 7 3 3 4 5 4 5 6 6 5 8 6 9 10 15 19 15 12 15 13 14 12 9 8 8 11 12 10 8 5 4 2 1 2 2 1 5 6 5 4 3 3 1 3 3 4 4 4 3 2 3 3 3 4 5 5 6 5 4
9 10 11 10 9 9 10 10 10 9 9 9 8 9 8 7 7 9 9 8 7 7 7 8 8 9 7 2 3 4 5 4 5 7 6 7 7 9 10 9 8 10 12 11 11 11 11 10 11 8 8 8 7 4 3 2 2 3 3 3 2 5 5 6 4 1 1 0 4 4 4 4 4 3 2 3 2 4 6 5 5 5 4 5 4
8 10 9 8 8 7 8 9 9 9 10 10 10 9 8 10 12 10 9 3 3 6 6 7 9 8 1 4 5 3 3 5 7 7 8 8 7 11 9 8 8 8 13 17 12 10 8 8 6 6 6 5 5 5 5 3 3 4 5 3 5 5 3 3 2 2 2 5 4 3 1 1 3 3 3 4 4 4 4 6 3 3 4 3 4
8 8 8 8 8 8 8 8 10 10 11 10 11 10 13 13 10 10 9 13 6 1 4 7 6 4 3 2 2 5 3 3 5 11 14 16 14 13 12 15 15 14 16 18 15 10 7 7 5 5 5 4 4 5 5 4 4 2 3 5 2 2 3 2 1 5 3 3 1 0 0 1 2 3 1 1 3 3 3 3 3 3 3 4 4
7 7 8 8 8 7 8 9 9 10 10 11 11 11 11 11 14 17 17 14 14 9 7 9 8 8 4 3 2 7 10 11 7 10 11 10 8 14 16 20 20 19 17 11 7 8 7 7 6 5 4 6 4 4 5 5 5 4 3 1 0 4 2 0 3 4 3 1 0 0 0 2 4 1 1 2 2 2 2 1 1 2 2 4 4
7 7 8 8 8 8 9 9 9 10 10 10 10 10 11 11 11 13 16 13 13 9 6 8 6 3 8 11 6 4 10 15 14 8 11 20 19 20 22 22 21 20 18 17 9 6 6 6 5 5 5 5 5 4 5 5 4 4 5 3 2 3 1 1 4 2 1 1 0 1 1 2 0 2 3 2 1 1 1 3 2 2 2 2 3
8 8 8 7 8 7 7 7 7 8 9 10 9 9 10 10 10 10 11 7 6 7 7 6 6 8 11 10 10 8 10 12 18 15 7 7 9 16 20 21 19 17 14 9 8 7 5 6 5 6 6 5 5 4 5 6 5 4 6 5 4 4 3 4 3 3 2 3 1 3 3 1 3 3 1 1 2 1 2 2 2 2 2 3 4
8 8 7 8 8 8 9 9 9 9 8 9 8 9 9 9 10 10 10 10 10 4 2 2 5 7 9 13 13 13 14 16 17 19 17 15 14 15 15 13 16 15 14 9 7 6 5 5 6 6 6 5 4 5 5 4 4 2 2 2 3 5 5 4 3 3 3 1 0 1 0 2 0 1 0 0 0 0 1 2 2 2 2 2 3
8 9 9 6 6 6 6 7 9 9 8 8 8 8 8 8 8 9 9 10 9 10 12 6 0 6 4 4 11 16 17 17 16 15 15 14 14 14 14 11 8 3 5 8 8 8 8 7 6 6 7 5 5 5 5 4 4 3 3 2 1 4 4 5 4 6 2 1 1 4 2 2 3 1 1 0 0 0 1 1 1 1 2 3 3
6 6 6 8 7 6 6 6 7 8 8 8 7 7 7 7 8 9 9 9 9 10 8 9 4 6 7 6 1 11 14 13 15 16 17 16 15 16 10 7 7 7 6 6 6 7 6 6 5 6 6 6 6 5 5 4 5 4 3 3 3 4 4 5 5 2 0 2 4 2 2 3 0 1 1 1 0 0 1 1 2 3 3 3 4
6 5 6 6 6 6 6 6 5 5 5 5 6 7 7 7 7 8 9 9 8 8 8 9 5 1 3 4 4 4 8 11 12 14 16 16 14 8 7 6 5 5 3 3 4 3 5 6 6 6 5 7 7 6 4 6 4 4 6 4 4 5 5 4 4 1 1 1 1 3 2 1 3 2 1 0 0 1 4 4 4 4 4 5 5
6 6 5 4 6 7 7 8 7 4 4 5 7 7 6 7 7 7 6 7 8 8 9 9 6 4 2 1 2 3 6 9 13 10 7 6 5 3 4 5 7 8 7 3 3 2 4 5 5 5 7 7 7 6 5 4 4 4 3 4 5 5 6 4 4 3 0 1 2 3 5 6 5 5 5 6 6 5 3 4 3 4 4 4 3
5 7 4 6 6 5 6 6 5 6 6 6 7 6 6 6 7 5 6 5 6 7 8 9 8 6 2 5 3 5 8 5 4 4 5 3 1 2 2 5 7 7 7 2 4 4 4 6 4 6 7 6 6 6 7 4 6 5 4 2 3 5 3 3 5 3 1 1 3 3 5 6 4 3 2 2 3 4 3 2 3 3 4 4 4
5 6 5 6 6 5 4 4 3 4 5 6 7 7 6 5 4 5 5 4 6 6 6 9 8 5 2 5 2 2 5 5 4 4 4 5 4 4 5 4 5 7 8 5 3 7 5 5 6 6 7 6 8 7 5 6 5 4 1 2 2 4 1 3 4 5 3 2 3 5 5 3 3 3 2 3 2 0 1 2 3 3 3 4 5
5 6 7 5 4 5 6 4 4 5 5 5 5 6 6 6 7 5 6 7 7 7 7 4 1 4 4 5 7 5 2 4 5 4 4 4 4 4 5 4 4 5 7 3 7 5 5 6 6 6 6 6 5 5 5 6 5 4 2 4 5 3 2 5 5 3 3 3 4 4 3 3 4 4 2 1 3 4 5 4 4 4 4 5 4
5 6 6 6 7 6 5 5 5 4 4 4 5 6 6 7 7 6 6 7 5 3 3 3 4 5 5 13 8 5 2 4 5 5 6 5 5 6 4 6 7 7 3 4 3 4 5 6 6 7 7 7 6 5 5 4 3 5 7 6 5 4 4 4 4 4 4 3 4 4 2 3 3 5 3 6 5 4 2 4 4 4 4 4 4
5 6 5 6 6 5 5 5 5 6 4 6 7 5 7 6 6 4 2 1 1 2 3 3 4 4 5 6 7 9 6 4 5 5 5 5 6 4 5 4 3 2 1 3 5 5 7 7 6 6 5 5 5 5 5 5 6 6 6 5 5 5 4 4 5 5 4 4 4 3 3 2 4 4 3 4 2 2 4 4 4 3 3 4 3
5 6 6 5 6 6 4 4 5 4 4 6 7 6 7 3 3 3 6 8 7 5 3 4 3 2 2 2 4 5 5 5 4 6 7 6 5 4 5 3 1 3 4 4 5 6 7 9 9 8 8 8 8 8 7 6 6 6 5 5 5 5 4 4 4 4 3 3 3 3 3 3 3 3 2 1 1 3 4 3 2 3 3 3 4
5 6 6 5 4 5 6 6 5 5 5 6 7 7 6 3 7 4 5 4 4 4 5 4 3 2 3 2 5 5 6 6 7 7 7 6 5 4 5 4 6 5 4 5 6 8 8 8 8 8 8 7 7 7 6 6 6 6 6 6 5 5 4 4 3 3 2 3 3 4 4 4 4 3 3 3 3 4 4 3 1 3 4 4 4
4 6 6 7 6 6 6 6 6 7 6 7 8 8 6 7 7 9 7 5 6 5 4 4 3 4 4 6 6 8 7 7 8 8 7 5 6 6 6 5 6 7 7 8 8 7 6 6 7 7 7 6 6 6 5 5 5 6 6 6 6 5 4 4 3 3 3 3 4 3 3 4 3 4 4 3 4 4 4 2 2 2 3 4 4
5 5 5 6 6 6 6 6 7 7 6 7 8 7 6 7 7 7 9 9 6 5 6 6 5 6 6 5 6 6 7 7 7 7 6 7 8 6 7 7 9 9 8 8 8 8 8 9 8 8 8 6 5 4 4 6 7 7 6 5 5 5 4 3 3 3 4 4 3 3 3 3 3 4 5 4 4 5 3 1 2 4 4 4 4
5 5 5 5 6 6 6 6 7 7 7 7 7 8 7 6 7 7 7 7 8 7 6 5 4 4 5 6 8 7 8 8 7 7 7 7 7 7 8 9 9 8 7 8 8 8 8 7 7 7 7 7 7 7 7 7 6 6 5 6 5 5 5 5 3 3 3 3 3 2 3 3 3 4 4 5 5 4 3 4 3 4 4 3 3
5 5 5 5 5 5 5 6 6 6 7 6 7 7 7 7 7 7 7 7 7 6 6 6 6 7 7 7 8 9 9 8 8 7 7 7 8 8 9 8 7 8 7 7 7 7 7 7 6 6 6 6 6 7 7 7 7 6 5 5 5 7 6 5 3 3 4 4 3 3 3 3 3 4 5 6 4 4 4 4 4 4 4 3 2
5 5 5 5 5 5 5 6 6 6 6 6 7 6 6 7 6 6 6 6 6 6 6 7 7 7 7 8 8 8 8 8 7 7 6 7 7 7 7 7 6 7 6 6 6 6 6 6 6 5 6 7 8 8 6 6 5 5 4 4 5 5 5 6 4 5 4 3 3 3 3 4 4 4 5 4 4 5 4 5 5 4 4 2 4
4 4 5 5 5 5 6 6 7 7 7 5 5 5 6 5 5 6 6 6 6 6 7 7 8 9 9 8 8 9 9 9 8 8 7 7 7 7 7 6 6 5 5 5 5 5 5 5 5 6 8 8 8 7 6 6 4 4 6 5 5 5 6 5 3 4 5 4 3 3 4 4 4 5 5 4 4 4 5 6 5 5 3 3 4
Wind_Direction
152 144 138 129 136 129 131 121 128 124 119 125 131 129 129 126 129 138 157 154 156 175 155 151 151 136 137 143 132 126 113 121 138 130 156 102 113 154 165 138 134 118 122 139 134 98 93 97 88 84 96 115 104 81 75 75 63 72 84 63 45 55 105 115 109 109 81 69 114 78 50 3 326 91 96 100 161 202 241 167 165 181 174 174 180
159 149 136 137 138 146 137 162 156 151 133 147 139 127 126 141 148 159 180 142 182 181 154 163 143 155 153 132 121 134 136 130 164 125 83 97 129 155 134 113 112 139 126 85 84 104 102 81 63 42 44 60 9 143 150 143 163 132 61 56 43 34 31 87 116 121 131 224 107 124 119 152 327 135 122 154 225 269 279 197 185 220 175 174 174
152 148 146 146 140 141 158 163 136 125 139 158 147 143 134 143 171 163 178 154 195 193 144 150 160 168 146 133 143 143 142 131 94 88 95 145 177 80 77 91 99 95 99 110 101 81 80 78 67 49 41 61 20 35 50 27 58 69 68 52 50 29 45 72 114 134 150 182 157 149 111 127 173 143 160 181 198 49 313 358 271 238 143 168 144
127 129 131 143 147 151 155 158 136 153 123 143 149 132 136 144 174 175 184 160 189 207 131 164 174 162 150 146 143 146 127 115 106 121 152 145 125 91 83 90 106 101 111 112 101 94 94 88 75 63 53 36 27 33 41 95 78 86 100 115 103 82 11 32 92 156 161 151 206 124 171 185 211 215 165 108 146 189 226 244 262 40 22 16 357
146 141 148 154 153 151 146 136 141 165 153 143 146 136 146 157 169 183 181 175 177 183 130 196 162 170 154 172 146 156 130 143 137 139 131 114 85 90 122 113 108 128 113 103 116 111 113 110 117 90 74 58 22 14 19 26 0 122 131 123 111 128 81 34 357 30 45 114 142 140 165 77 171 314 54 135 177 83 282 15 57 39 28 4 2
89 107 133 136 145 138 147 147 162 160 141 124 158 151 154 165 161 190 174 190 188 179 145 211 177 178 172 188 162 148 148 150 150 148 139 173 125 147 141 140 163 98 82 104 115 108 130 120 118 104 86 102 315 41 23 48 360 33 19 71 101 67 86 86 69 58 74 14 126 141 108 130 343 340 322 136 163 147 29 44 24 37 24 2 342
118 155 124 129 123 140 145 141 160 146 159 135 154 169 190 186 167 197 167 174 173 176 154 215 165 228 177 205 162 160 151 163 150 151 143 164 152 164 127 155 156 107 95 105 114 107 128 121 118 121 114 108 87 66 42 42 30 54 10 49 59 116 108 160 222 154 135 120 303 155 153 173 133 193 269 57 95 78 92 36 27 5 27 4 326
83 85 100 101 113 126 125 137 163 149 168 158 169 172 180 223 214 208 166 163 167 173 181 245 170 275 222 216 168 154 151 152 161 153 169 159 158 170 154 158 189 165 157 173 136 133 137 107 119 126 139 128 103 96 80 47 52 0 3 49 43 92 60 18 97 11 47 256 272 106 154 145 195 285 16 45 8 24 62 101 3 11 348 347 320
60 73 59 57 62 73 60 17 52 115 110 155 136 150 169 193 211 235 181 156 143 172 169 199 227 219 272 232 194 133 146 152 178 169 179 177 163 185 183 187 182 181 165 188 164 139 170 101 67 60 76 104 89 84 69 59 39 17 352 333 65 71 354 6 358 68 315 321 305 300 358 135 123 154 119 41 62 8 13 50 37 8 356 330 315
73 53 67 69 84 101 132 171 170 174 145 153 171 171 177 181 193 343 327 168 153 173 222 200 204 196 246 268 204 120 127 142 167 173 211 189 183 190 196 193 202 182 181 196 180 158 96 108 142 109 72 78 105 96 87 77 70 82 52 349 319 83 56 1 348 338 5 339 338 15 25 358 52 114 103 61 53 45 43 32 13 340 340 316 304
68 83 70 85 81 79 116 117 120 125 125 153 116 156 147 100 41 18 18 36 9 340 303 258 231 215 226 276 297 60 36 18 9 124 87 283 194 199 192 201 211 205 189 189 181 102 110 97 106 109 103 109 95 109 104 97 85 71 56 60 32 63 48 24 327 332 343 336 269 28 47 30 28 26 40 53 42 36 33 21 356 345 332 331 313
63 66 81 70 70 98 47 80 107 122 137 154 153 146 145 147 153 175 148 37 339 351 321 23 51 43 46 48 61 61 60 299 32 333 320 238 284 210 199 202 215 222 210 188 186 115 119 113 90 165 143 141 134 106 106 107 103 97 84 70 68 63 75 99 55 33 25 356 356 28 42 23 75 55 38 47 16 15 17 13 357 354 345 341 318
130 142 133 126 181 115 173 149 101 83 102 88 315 155 150 146 159 155 146 198 207 225 285 50 68 71 84 72 86 96 161 257 267 262 290 294 260 280 232 207 215 221 229 214 136 112 79 55 68 284 163 137 139 158 154 121 97 103 102 87 59 76 92 80 86 103 356 359 5 34 83 35 60 66 53 41 34 25 8 7 3 356 348 321 298
41 26 28 29 20 6 50 28 95 137 142 147 175 173 210 176 162 147 146 255 220 223 218 177 130 136 181 99 113 148 154 240 223 249 250 255 261 280 261 242 221 219 216 235 90 122 106 230 179 175 190 180 184 172 154 149 149 127 124 122 115 62 75 119 115 105 132 99 13 13 65 55 82 81 57 41 43 27 20 346 351 334 315 285 289
42 24 21 19 15 10 17 22 8 8 348 115 168 190 192 204 182 174 153 191 222 215 213 208 178 185 192 164 163 156 169 194 224 237 241 235 228 226 256 281 284 307 13 31 41 160 190 213 201 187 186 183 182 184 171 160 156 152 146 157 147 173 133 35 28 25 37 37 49 60 52 50 59 56 41 42 44 33 30 342 323 292 285 281 281
32 23 7 10 3 4 1 2 5 357 345 349 341 310 192 183 203 190 190 188 189 204 203 192 195 204 197 172 166 159 174 207 224 226 236 248 225 217 231 241 246 67 90 302 241 173 196 195 197 188 174 177 189 194 186 145 146 147 153 175 148 97 73 12 325 70 76 75 67 74 79 89 84 81 74 54 36 35 12 359 337 308 299 298 293
20 13 7 355 355 358 353 350 354 348 355 337 330 322 325 318 255 171 186 207 217 195 193 202 205 202 198 189 189 177 182 220 237 230 217 228 222 228 229 232 217 170 141 191 260 286 194 183 184 176 174 174 189 198 182 149 159 161 162 166 138 122 120 153 123 87 95 95 102 104 111 102 97 110 108 90 90 77 20 356 321 356 348 319 307
15 5 356 345 343 349 345 343 340 340 336 331 337 342 336 335 320 317 262 219 217 223 210 201 202 202 197 194 194 199 200 204 217 227 216 210 202 220 221 224 215 138 165 184 186 188 294 93 170 180 174 167 167 165 163 154 162 168 173 158 142 136 143 153 140 81 80 86 84 98 109 123 128 139 133 131 135 133 138 207 283 353 300 289 292
11 357 349 346 339 341 330 326 319 320 318 320 333 329 329 321 320 317 311 301 272 248 234 237 219 200 193 195 188 192 194 188 198 211 213 203 200 215 218 219 213 171 162 175 176 149 68 12 265 175 136 149 149 138 142 148 151 185 164 157 153 158 175 164 151 128 140 147 154 144 175 187 198 209 204 186 193 200 210 210 234 216 258 276 281
349 345 349 345 328 314 309 300 306 315 314 315 315 312 316 316 305 314 307 300 292 285 268 246 234 225 189 172 193 197 193 185 187 204 204 198 196 206 211 223 197 160 157 174 165 147 114 93 44 105 123 117 107 100 91 89 76 229 171 173 179 176 146 147 141 157 168 189 173 181 210 192 199 209 221 214 216 189 199 235 241 238 250 270 283
349 346 335 326 318 313 315 313 313 314 310 307 308 308 304 300 304 294 298 294 286 280 277 286 282 261 216 176 185 196 188 203 198 177 190 194 201 206 209 223 187 161 165 160 162 143 127 111 107 117 118 110 99 89 82 70 66 67 89 89 86 94 112 107 103 99 120 131 232 217 241 232 187 204 233 217 201 186 199 226 251 308 345 354 359
331 324 324 326 326 322 315 313 312 305 296 291 285 277 276 277 278 281 269 265 270 267 261 255 260 258 232 219 183 166 180 190 220 180 183 195 203 206 212 206 158 157 151 185 157 153 144 146 133 133 108 98 95 90 87 86 83 83 87 99 78 64 77 112 119 154 191 191 208 208 214 225 300 235 229 141 158 185 193 203 167 26 32 29 344
319 324 325 322 319 314 311 311 309 303 296 293 293 289 286 282 277 279 282 281 281 281 278 271 258 257 237 184 132 126 107 193 211 189 203 205 202 204 213 217 159 163 195 193 181 134 104 114 128 126 110 105 100 101 99 95 85 91 86 72 67 62 29 166 118 132 71 11 40 24 6 329 289 306 32 33 65 81 84 76 25 348 336 296 286
298 301 304 301 306 312 314 313 312 315 313 312 303 293 283 276 276 272 271 268 268 262 257 255 254 255 244 195 142 140 158 189 200 181 197 211 213 208 214 234 257 236 202 199 131 120 122 125 129 115 104 99 94 91 91 93 107 103 87 87 87 116 232 129 145 172 162 87 59 327 269 264 44 15 21 57 36 18 316 281 251 228 227 228 261
325 321 318 316 314 307 298 294 297 304 305 305 304 303 299 292 279 272 268 269 265 263 263 262 263 263 253 200 153 154 173 166 128 110 110 93 234 234 232 244 224 217 212 109 115 115 115 118 116 106 103 101 101 95 88 88 89 85 77 69 49 250 192 232 138 82 66 98 219 218 65 51 63 51 58 51 4 333 307 288 248 230 52 357 328
325 325 321 317 316 314 314 314 308 304 306 306 302 300 300 297 292 287 284 280 272 264 260 260 259 258 253 199 156 156 142 132 124 110 131 133 120 151 137 120 118 122 114 112 112 115 116 113 108 108 107 110 101 96 95 95 82 73 77 59 274 252 235 100 59 100 157 339 45 47 36 32 35 31 359 312 279 278 332 359 16 356 9 355 352
329 323 318 315 317 315 312 311 318 314 305 296 284 276 284 294 294 288 277 271 278 282 279 269 260 253 250 230 154 130 126 138 136 145 163 142 122 108 75 89 105 103 101 109 110 106 110 111 115 105 98 92 93 95 102 106 104 116 163 194 238 350 57 61 60 39 22 2 25 46 32 25 16 360 308 17 356 326 14 21 22 1 6 345 341
327 317 313 314 312 312 310 314 313 304 300 297 301 307 295 275 275 291 292 290 283 286 297 298 280 255 238 140 135 148 160 168 149 159 174 162 159 139 140 154 133 122 118 117 116 114 111 109 106 111 109 104 102 111 123 150 153 164 193 209 148 108 106 87 68 55 269 81 60 48 31 19 333 317 352 301 290 32 35 28 22 352 345 348 327
321 310 310 307 305 307 306 305 307 309 309 309 307 302 303 318 311 289 279 313 27 331 320 322 327 329 14 125 127 147 159 205 202 176 169 195 181 152 150 144 132 122 127 124 112 114 116 116 123 124 130 128 136 138 152 173 195 209 200 177 128 119 120 114 166 212 80 59 63 61 6 343 327 336 329 14 28 20 29 22 351 341 319 308 297
310 308 307 308 307 312 315 312 308 305 305 302 300 298 302 298 298 304 301 299 289 217 277 288 282 296 312 15 114 129 155 204 265 179 176 182 194 154 138 127 124 125 130 128 127 127 129 127 133 139 144 139 154 158 162 178 186 147 72 37 19 66 104 143 120 97 98 93 84 66 110 47 317 273 303 39 27 25 19 13 316 321 330 327 322
311 308 311 310 321 327 313 304 303 301 301 299 298 303 305 306 309 310 307 296 297 303 274 249 246 266 225 164 74 109 110 54 14 150 114 112 118 117 116 117 120 123 123 112 98 120 132 134 142 139 150 150 163 170 163 150 141 119 119 103 351 106 97 43 78 74 72 70 102 132 142 225 239 258 61 48 43 7 326 309 1 354 334 323 315
310 310 311 312 316 314 309 304 303 300 297 297 300 299 298 302 305 303 298 298 306 310 304 297 264 201 160 148 136 53 82 89 62 19 167 165 156 140 134 132 135 135 138 126 119 132 132 138 148 152 157 156 185 182 155 144 153 149 140 151 187 121 134 91 94 96 102 164 109 33 286 254 235 47 54 31 37 343 15 6 347 325 298 300 290
310 311 311 309 305 302 303 301 298 295 295 296 294 291 294 298 301 306 311 309 277 289 300 322 296 222 156 160 159 148 144 123 119 107 70 63 110 128 133 135 133 128 115 109 133 142 144 145 151 159 163 170 182 164 144 137 152 146 151 181 169 156 138 131 160 159 172 123 127 245 244 278 61 46 18 14 52 31 12 322 284 283 282 288 300
310 306 300 298 297 294 292 290 288 287 288 288 288 292 293 297 295 299 300 303 313 299 219 318 337 298 239 197 174 149 145 145 145 143 150 143 140 139 131 133 139 141 135 132 132 148 146 152 159 168 169 183 157 128 121 123 119 107 111 92 125 150 131 153 114 89 69 57 130 278 275 93 104 195 195 105 101 68 265 269 285 317 345 345 328
308 307 302 291 280 272 265 271 277 281 285 285 288 287 288 287 295 303 303 306 308 313 312 303 11 7 303 237 169 155 151 149 145 143 141 142 143 141 124 125 129 119 122 135 144 152 161 162 170 171 169 160 135 127 127 127 125 127 116 150 122 96 100 92 87 78 59 348 314 275 241 213 216 176 133 121 199 247 287 316 342 20 356 339 322
315 308 306 298 287 272 258 254 264 275 279 284 291 302 303 303 298 292 297 301 301 301 308 332 358 12 28 36 95 145 137 137 136 136 140 142 148 141 141 149 143 154 151 164 159 160 160 170 164 156 145 126 118 114 119 119 117 136 164 140 96 108 103 93 94 98 209 210 233 263 344 317 93 90 77 62 85 120 274 15 34 19 2 331 319
322 319 307 311 318 317 304 299 285 272 279 286 289 284 279 282 282 289 288 285 299 310 318 313 307 336 37 63 83 117 126 133 137 140 141 147 150 133 124 143 144 138 180 165 130 193 158 167 147 153 134 120 120 123 124 116 126 92 66 88 103 88 83 94 98 108 261 22 308 275 271 332 26 14 31 40 126 48 55 48 29 12 343 319 312
329 323 323 322 307 301 318 324 330 319 272 273 278 282 281 277 288 292 291 296 297 301 299 301 278 256 225 126 174 135 99 96 91 78 81 119 137 159 154 152 150 157 156 187 225 217 157 157 162 148 122 120 119 125 118 134 122 110 111 81 93 110 134 137 168 198 82 270 290 9 31 29 22 23 17 16 39 54 45 36 0 298 286 284 286
335 311 260 253 274 302 330 328 324 318 312 305 294 288 274 273 275 269 277 278 284 289 292 291 289 269 208 135 135 131 123 123 135 141 143 133 50 38 103 128 124 126 115 151 294 280 170 168 163 124 124 126 126 118 116 102 95 102 101 146 158 138 193 177 188 205 177 48 19 29 44 37 17 355 355 36 52 47 15 304 275 270 278 287 289
324 331 310 291 309 316 297 262 265 285 281 279 289 287 289 283 277 279 280 278 283 278 271 273 249 226 117 118 89 227 154 135 131 144 142 139 165 169 148 142 140 136 134 158 271 263 163 142 115 116 115 109 99 105 105 106 101 109 189 236 126 124 136 74 100 91 74 45 47 48 41 26 332 304 314 65 74 30 291 348 344 319 304 299 297
343 325 308 298 312 299 317 307 295 300 294 287 287 298 292 286 281 279 271 267 264 262 260 278 55 117 131 120 146 207 119 112 116 122 140 146 147 133 128 119 112 114 126 168 251 223 127 106 98 96 95 101 106 106 108 105 123 143 114 68 57 55 80 84 76 70 53 59 69 53 32 355 325 321 326 61 61 43 42 14 318 299 296 291 286
329 322 314 343 334 324 319 326 315 275 280 287 275 267 266 263 264 257 255 253 248 268 316 51 76 71 119 133 175 213 120 112 118 126 128 123 117 118 119 108 105 110 159 225 194 114 84 82 75 75 79 82 86 83 88 88 84 85 73 67 57 34 48 72 70 54 49 43 62 63 21 301 306 315 4 60 49 42 335 283 276 279 284 298 301
342 319 321 339 324 343 344 327 345 356 350 338 310 293 278 270 275 286 290 236 208 25 49 49 49 72 84 94 85 73 76 92 105 107 101 105 100 88 86 89 68 109 193 111 81 89 87 83 77 70 69 74 93 108 93 76 73 80 76 70 59 58 49 40 42 35 24 23 35 359 311 340 14 340 47 58 42 299 272 270 270 284 305 299 307
346 330 331 343 342 337 349 345 340 339 336 322 322 327 332 356 360 40 43 27 47 70 71 66 54 37 90 87 85 85 92 95 99 99 95 80 64 65 80 85 100 108 78 71 74 78 78 80 83 81 72 62 56 55 64 66 63 67 81 89 81 68 54 40 40 28 21 7 348 339 345 11 358 329 53 48 295 293 289 288 319 334 325 318 314
7 347 351 338 355 344 349 336 333 323 320 331 329 329 311 346 14 30 92 93 81 91 107 116 143 200 206 131 90 84 76 74 73 66 56 52 43 64 117 119 96 76 68 65 67 73 84 89 87 85 83 71 66 67 67 64 65 67 58 64 74 68 56 45 20 354 20 9 357 352 351 353 352 352 350 343 331 303 301 315 358 3 331 318 315
33 9 1 349 348 352 358 349 357 351 9 4 350 354 12 40 41 29 27 60 64 51 56 50 35 36 60 76 87 87 90 89 85 85 86 83 68 53 47 59 67 69 58 56 67 79 83 89 89 86 87 92 90 88 83 94 90 78 69 63 60 58 41 18 358 342 7 18 8 348 349 358 343 320 319 326 314 306 304 328 43 318 286 296 302
31 33 22 12 3 354 356 352 6 356 14 10 359 3 20 37 41 34 29 23 42 80 75 61 48 46 64 85 92 93 92 93 94 91 83 75 74 70 64 61 65 67 71 72 76 79 78 78 80 80 75 69 72 82 83 77 71 67 61 56 59 53 39 360 336 347 17 20 5 358 354 314 303 309 323 315 302 295 307 340 332 291 287 293 293
41 44 45 32 21 14 12 8 10 4 14 18 13 3 5 27 46 46 44 37 29 36 50 67 75 82 93 104 103 99 101 100 98 89 82 81 80 77 71 63 62 64 64 66 67 72 77 77 75 73 71 65 63 56 59 66 70 71 69 64 52 53 34 9 338 19 17 344 311 294 291 296 298 298 286 292 291 288 310 300 291 290 292 299 308
52 48 48 36 42 37 31 18 23 25 21 25 23 26 19 28 37 49 51 51 43 36 35 36 41 47 47 62 92 104 105 105 101 99 95 88 82 76 75 76 72 71 69 66 62 61 65 67 72 76 83 86 79 71 62 59 61 64 63 62 53 48 36 30 29 26 343 319 331 329 307 289 288 294 294 282 290 309 304 309 298 293 306 320 309
57 59 44 35 43 41 47 53 43 37 36 32 37 33 19 22 30 38 53 62 62 55 46 36 32 35 49 61 70 75 78 82 84 84 84 87 87 90 88 87 85 85 87 93 93 86 78 74 76 77 77 76 72 68 65 60 54 56 61 60 46 36 34 29 33 21 5 355 331 293 289 283 277 277 279 300 330 317 328 325 308 308 324 6 24
75 66 64 59 47 40 47 54 57 57 48 42 40 42 30 26 22 24 38 54 65 61 56 54 52 48 48 51 59 65 70 75 78 80 82 86 86 84 85 87 91 95 97 96 96 94 95 88 77 67 63 66 70 71 64 61 59 66 65 52 36 34 32 29 14 352 345 328 291 284 270 272 282 286 287 310 310 307 327 318 313 323 345 45 27